Terminal Aerodrome Forecast
Issued by NWS Blacksburg, VA

Home | Current Version | Previous Version | Text Only | Print | Product List | Glossary On
Versions: 1 2 3 4 5 6 7 8 9 10 11 12 13 14 15 16 17 18 19 20 21 22 23 24 25 26 27 28 29 30 31 32 33 34 35 36 37 38 39 40 41 42 43 44 45 46 47 48 49 50
000
FTUS41 KRNK 040903 AAD
TAFLYH
TAF AMD
KLYH 040903Z 0409/0506 21009KT 5SM BR OVC004 WS018/24060KT
      TEMPO 0410/0412 OVC008
     FM041300 22005KT 6SM BR OVC008
     FM042000 36004KT 5SM -RA OVC010
     FM050000 02008KT 4SM -RA BR OVC007=

USA.gov is the U.S. government's official web portal to all federal, state and local government web resources and services.